SDIF weather

Palácio Tiradentes Heliport
Belo Horizonte, Minas Gerais, Brazil

Public forecast

Using degrees Celsius for public forecast. Weather courtesy of forecast.io.

METAR (pilot weather report)

Closest report is Pampulha - Carlos Drummond de Andrade Airport, 3.9 nm (7.2 km) S. Retrieved 2019/07/19 13:00 UTC (22 minutes ago):

SBBH 191300Z 08013KT CAVOK 19/07 Q1029

TAF (pilot weather forecast)

Forecast is more than 12 hours old.

Closest forecast is Pampulha - Carlos Drummond de Andrade Airport, 3.9 nm (7.2 km) S. Retrieved 2012/03/26 18:12 UTC (7 years ago):

TAF SBBH 261639Z 2618/2706 09005KT 9999 SCT030 TX28/2618Z TN20/2705Z PROB30 2619/2624 8000 TSRA BKN035 FEW045CB RMK PGG